Date,TemperatureHighF,TemperatureAvgF,TemperatureLowF,DewpointHighF,DewpointAvgF,DewpointLowF,HumidityHigh,HumidityAvg,HumidityLow,PressureMaxIn,PressureMinIn,WindSpeedMaxMPH,WindSpeedAvgMPH,GustSpeedMaxMPH,PrecipitationSumIn
2013-10-1,51.0,44.5,40.0,-99.9,-99.9,-99.9,0,0,100,0.00,40.00,10,7,19,0.00
2013-10-2,50.0,39.6,26.0,-99.9,-99.9,-99.9,0,0,100,0.00,40.00,7,3,12,0.00
2013-10-3,47.0,39.8,35.0,-99.9,-99.9,-99.9,0,0,100,0.00,40.00,20,13,27,0.01
2013-10-4,52.0,43.0,29.0,-99.9,-99.9,-99.9,0,0,100,0.00,40.00,8,-246,12,0.00
2013-10-5,59.0,43.1,23.0,-99.9,-99.9,-99.9,0,0,100,0.00,40.00,3,2,7,0.00
2013-10-6,66.0,43.6,24.0,-99.9,-99.9,-99.9,0,0,100,0.00,40.00,7,-81,14,0.00
2013-10-7,59.0,41.6,28.0,-99.9,-99.9,-99.9,0,0,100,0.00,40.00,11,4,18,0.00
2013-10-8,46.0,38.3,32.0,-99.9,-99.9,-99.9,0,0,100,0.00,40.00,6,3,12,0.00
2013-10-9,50.0,36.7,26.0,-99.9,-99.9,-99.9,0,0,100,0.00,40.00,9,3,14,0.00
2013-10-10,50.0,37.2,26.0,-99.9,-99.9,-99.9,0,0,100,0.00,40.00,6,2,14,0.00
2013-10-11,52.0,40.3,27.0,-99.9,-99.9,-99.9,0,0,100,0.00,40.00,4,2,10,0.00
2013-10-12,51.0,35.7,29.0,-99.9,-99.9,-99.9,0,0,100,0.00,40.00,5,2,9,0.00
2013-10-13,51.0,40.2,29.0,-99.9,-99.9,-99.9,0,0,100,0.00,40.00,12,5,18,0.00
2013-10-21,41.0,38.0,35.0,-99.9,-99.9,-99.9,0,0,100,0.00,40.00,1,0,5,0.00
2013-10-22,61.0,48.5,40.0,-99.9,-99.9,-99.9,0,0,100,0.00,40.00,5,2,7,0.00
2013-10-23,26.0,26.0,26.0,-99.9,-99.9,-99.9,0,0,100,0.00,40.00,1,0,3,0.00
2013-10-24,65.0,58.5,52.0,-99.9,-99.9,-99.9,0,0,100,0.00,40.00,4,2,7,0.00
2013-10-25,50.0,33.0,23.0,-99.9,-99.9,-99.9,0,0,100,0.00,40.00,3,1,6,0.00
2013-10-26,62.0,39.5,24.0,-99.9,-99.9,-99.9,0,0,100,0.00,40.00,4,2,7,0.00
2013-10-27,41.0,36.3,28.0,-99.9,-99.9,-99.9,0,0,100,0.00,40.00,3,2,8,0.00